This is the latest recevied weather packets stored in our database for station/object HP1MRA-15. If no packets are shown the sender has not sent any weather packets the latest 10 day(s).
| Time | Temp. | Humidity | Pressure | Rain* | Wind** | Luminosity | Snow |
|---|---|---|---|---|---|---|---|
| 1788030760 | 30° C | 65% | 1001.2 hPa | 4.57 mm | - | - | - |
| 1788030460 | 30.56° C | 67% | 1001.5 hPa | 2.03 mm | - | - | - |
| 1788030459 | 30.56° C | 67% | 1001.4 hPa | 2.03 mm | - | - | - |
| 1788030160 | 31.67° C | 62% | 1001.4 hPa | 0.76 mm | - | - | - |
| 1788029859 | 32.78° C | 62% | 1001.3 hPa | 0.25 mm | - | - | - |
| 1788029560 | 32.78° C | 59% | 1001 hPa | 0 mm | - | - | - |
| 1788029558 | 32.78° C | 59% | 1000.9 hPa | 0 mm | - | - | - |
| 1788029260 | 33.33° C | 58% | 1001.1 hPa | 0 mm | - | - | - |
| 1788028959 | 33.33° C | 59% | 1001.1 hPa | 0 mm | - | - | - |
| 1788028660 | 33.89° C | 58% | 1001.3 hPa | 0 mm | - | - | - |
| 1788028658 | 33.89° C | 58% | 1001.2 hPa | 0 mm | - | - | - |
| 1788028360 | 34.44° C | 58% | 1001.3 hPa | 0 mm | - | - | - |
| 1788028059 | 35.56° C | 56% | 1001.6 hPa | 0 mm | - | - | - |
| 1788027760 | 36.67° C | 55% | 1001.8 hPa | 0 mm | - | - | - |
| 1788027758 | 36.67° C | 55% | 1001.7 hPa | 0 mm | - | - | - |
| 1788027460 | 38.33° C | 57% | 1001.5 hPa | 0 mm | - | - | - |
| 1788027159 | 38.33° C | 57% | 1001.6 hPa | 0 mm | - | - | - |
| 1788026860 | 38.33° C | 56% | 1001.6 hPa | 0 mm | - | - | - |
| 1788026858 | 38.33° C | 56% | 1001.7 hPa | 0 mm | - | - | - |
| 1788026559 | 38.33° C | 55% | 1001.7 hPa | 0 mm | - | - | - |
| 1788026259 | 38.89° C | 53% | 1001.6 hPa | 0 mm | - | - | - |
| 1788025960 | 39.44° C | 54% | 1001.7 hPa | 0 mm | - | - | - |
| 1788025958 | 39.44° C | 54% | 1001.7 hPa | 0 mm | - | - | - |
| 1788025659 | 40° C | 54% | 1001.8 hPa | 0 mm | - | - | - |
| 1788025359 | 40° C | 58% | 1002 hPa | 0 mm | - | - | - |
* Rain latest hour (hover to see other rain measurements)
** Current wind speed in m/s (hover to see current wind gust speed)